timestamp,wind_dir_avg,wind_spd_max_dir,wind_spd_avg,wind_spd_gust,battery_voltage,lat,long
2018-05-14 00:00:00+00:00,231.0,230.0,6.07,6.66,,47.59359,-54.27349
2018-05-14 00:10:00+00:00,243.0,248.0,5.43,6.85,,47.59359,-54.27349
2018-05-14 00:20:00+00:00,250.0,251.0,5.62,6.07,,47.59359,-54.27349
2018-05-14 00:30:00+00:00,251.0,252.0,5.9,6.59,,47.59359,-54.27349
2018-05-14 00:40:00+00:00,247.0,251.0,6.21,7.24,,47.59359,-54.27349
2018-05-14 00:50:00+00:00,252.0,252.0,5.29,5.97,,47.59359,-54.27349
2018-05-14 01:00:00+00:00,268.0,270.0,4.59,4.89,,47.59359,-54.27349
2018-05-14 01:10:00+00:00,264.0,264.0,3.55,4.92,,47.59359,-54.27349
2018-05-14 01:20:00+00:00,253.0,254.0,5.82,6.48,,47.59359,-54.27349
2018-05-14 01:30:00+00:00,250.0,251.0,6.23,7.11,,47.59359,-54.27349
2018-05-14 01:40:00+00:00,257.0,260.0,6.85,7.67,,47.59359,-54.27349
2018-05-14 01:50:00+00:00,267.0,271.0,7.23,8.29,,47.59359,-54.27349
2018-05-14 02:00:00+00:00,257.0,256.0,6.72,7.63,,47.59359,-54.27349
2018-05-14 02:10:00+00:00,272.0,275.0,8.0,8.56,,47.59359,-54.27349
2018-05-14 02:20:00+00:00,284.0,284.0,7.88,8.69,,47.59359,-54.27349
2018-05-14 02:30:00+00:00,286.0,287.0,7.35,7.72,,47.59359,-54.27349
2018-05-14 02:40:00+00:00,286.0,285.0,7.42,8.09,,47.59359,-54.27349
2018-05-14 02:50:00+00:00,291.0,285.0,7.36,8.0,,47.59359,-54.27349
2018-05-14 03:00:00+00:00,288.0,285.0,7.07,7.87,,47.59359,-54.27349
2018-05-14 03:10:00+00:00,288.0,292.0,6.57,7.17,,47.59359,-54.27349
2018-05-14 03:20:00+00:00,286.0,289.0,5.13,5.8,,47.59359,-54.27349
2018-05-14 03:30:00+00:00,283.0,282.0,4.25,4.81,,47.59359,-54.27349
2018-05-14 03:40:00+00:00,199.0,201.0,2.6,3.15,,47.59359,-54.27349
2018-05-14 03:50:00+00:00,223.0,217.0,1.91,3.17,,47.59359,-54.27349
2018-05-14 04:00:00+00:00,216.0,217.0,4.02,5.02,,47.59359,-54.27349
2018-05-14 04:10:00+00:00,229.0,230.0,4.97,5.5,,47.59359,-54.27349
2018-05-14 04:20:00+00:00,233.0,235.0,4.09,4.66,,47.59359,-54.27349
2018-05-14 04:30:00+00:00,220.0,219.0,4.1,4.89,,47.59359,-54.27349
2018-05-14 04:40:00+00:00,223.0,223.0,3.96,4.43,,47.59359,-54.27349
2018-05-14 04:50:00+00:00,272.0,289.0,1.7,3.18,,47.59359,-54.27349
2018-05-14 05:00:00+00:00,289.0,293.0,5.91,6.69,,47.59359,-54.27349
2018-05-14 05:10:00+00:00,285.0,284.0,8.54,9.33,,47.59359,-54.27349
2018-05-14 05:20:00+00:00,282.0,287.0,8.58,9.4,,47.59359,-54.27349
2018-05-14 05:30:00+00:00,295.0,294.0,8.93,10.17,,47.59359,-54.27349
2018-05-14 05:40:00+00:00,301.0,299.0,7.18,7.96,,47.59359,-54.27349
2018-05-14 05:50:00+00:00,280.0,288.0,4.56,6.67,,47.59359,-54.27349
2018-05-14 06:00:00+00:00,144.0,144.0,2.52,3.02,,47.59359,-54.27349
2018-05-14 06:10:00+00:00,182.0,178.0,3.88,4.53,,47.59359,-54.27349
2018-05-14 06:20:00+00:00,210.0,214.0,1.96,2.48,,47.59359,-54.27349
2018-05-14 06:30:00+00:00,223.0,215.0,3.25,4.02,,47.59359,-54.27349
2018-05-14 06:40:00+00:00,227.0,227.0,3.94,4.39,,47.59359,-54.27349
2018-05-14 06:50:00+00:00,212.0,216.0,3.9,4.31,,47.59359,-54.27349
2018-05-14 07:00:00+00:00,211.0,206.0,5.05,6.16,,47.59359,-54.27349
2018-05-14 07:10:00+00:00,208.0,211.0,5.14,6.03,,47.59359,-54.27349
2018-05-14 07:20:00+00:00,217.0,219.0,6.03,6.59,,47.59359,-54.27349
2018-05-14 07:30:00+00:00,218.0,218.0,6.26,6.74,,47.59359,-54.27349
2018-05-14 07:40:00+00:00,227.0,223.0,6.13,6.94,,47.59359,-54.27349
2018-05-14 07:50:00+00:00,217.0,217.0,4.76,5.23,,47.59359,-54.27349
2018-05-14 08:00:00+00:00,206.0,209.0,4.22,4.5,,47.59359,-54.27349
2018-05-14 08:10:00+00:00,220.0,223.0,4.23,5.24,,47.59359,-54.27349
2018-05-14 08:20:00+00:00,225.0,227.0,5.98,6.58,,47.59359,-54.27349
2018-05-14 08:30:00+00:00,237.0,239.0,5.87,6.63,,47.59359,-54.27349
2018-05-14 08:40:00+00:00,221.0,218.0,5.14,5.66,,47.59359,-54.27349
2018-05-14 08:50:00+00:00,231.0,237.0,5.37,5.85,,47.59359,-54.27349
2018-05-14 09:00:00+00:00,242.0,244.0,6.41,7.29,,47.59359,-54.27349
2018-05-14 09:10:00+00:00,235.0,237.0,7.45,8.26,,47.59359,-54.27349
2018-05-14 09:20:00+00:00,237.0,239.0,7.23,8.0,,47.59359,-54.27349
2018-05-14 09:30:00+00:00,223.0,228.0,8.23,9.12,,47.59359,-54.27349
2018-05-14 09:40:00+00:00,232.0,232.0,7.32,7.93,,47.59359,-54.27349
2018-05-14 09:50:00+00:00,230.0,229.0,9.35,10.08,,47.59359,-54.27349
2018-05-14 10:00:00+00:00,229.0,230.0,8.12,9.04,,47.59359,-54.27349
2018-05-14 10:10:00+00:00,230.0,231.0,8.81,9.97,,47.59359,-54.27349
2018-05-14 10:20:00+00:00,234.0,237.0,8.23,9.55,,47.59359,-54.27349
2018-05-14 10:30:00+00:00,229.0,226.0,8.81,9.91,,47.59359,-54.27349
2018-05-14 10:40:00+00:00,217.0,219.0,7.96,9.23,,47.59359,-54.27349
2018-05-14 10:50:00+00:00,226.0,225.0,7.98,9.71,,47.59359,-54.27349
2018-05-14 11:00:00+00:00,216.0,220.0,8.79,10.02,,47.59359,-54.27349
2018-05-14 11:10:00+00:00,217.0,218.0,10.67,11.91,,47.59359,-54.27349
2018-05-14 11:20:00+00:00,214.0,216.0,9.28,10.89,,47.59359,-54.27349
2018-05-14 11:30:00+00:00,214.0,212.0,9.98,11.55,,47.59359,-54.27349
2018-05-14 11:40:00+00:00,209.0,209.0,8.71,9.61,,47.59359,-54.27349
2018-05-14 11:50:00+00:00,199.0,198.0,9.29,10.11,,47.59359,-54.27349
2018-05-14 12:00:00+00:00,198.0,199.0,7.82,8.65,,47.59359,-54.27349
2018-05-14 12:10:00+00:00,207.0,209.0,7.88,8.68,,47.59359,-54.27349
2018-05-14 12:20:00+00:00,216.0,219.0,7.48,8.39,,47.59359,-54.27349
2018-05-14 12:30:00+00:00,212.0,215.0,7.93,8.53,,47.59359,-54.27349
2018-05-14 12:40:00+00:00,216.0,221.0,9.1,10.04,,47.59359,-54.27349
2018-05-14 12:50:00+00:00,219.0,218.0,8.57,9.63,,47.59359,-54.27349
2018-05-14 13:00:00+00:00,218.0,220.0,8.12,9.66,,47.59359,-54.27349
2018-05-14 13:10:00+00:00,223.0,226.0,9.45,11.22,,47.59359,-54.27349
2018-05-14 13:20:00+00:00,222.0,225.0,9.04,10.56,,47.59359,-54.27349
2018-05-14 13:30:00+00:00,222.0,223.0,9.27,10.68,,47.59359,-54.27349
2018-05-14 13:40:00+00:00,218.0,220.0,10.15,11.36,,47.59359,-54.27349
2018-05-14 13:50:00+00:00,220.0,222.0,9.91,11.25,,47.59359,-54.27349
2018-05-14 14:00:00+00:00,219.0,223.0,10.37,11.34,,47.59359,-54.27349
2018-05-14 14:10:00+00:00,221.0,221.0,10.08,11.51,,47.59359,-54.27349
2018-05-14 14:20:00+00:00,220.0,218.0,10.19,11.19,,47.59359,-54.27349
2018-05-14 14:30:00+00:00,221.0,223.0,10.88,13.17,,47.59359,-54.27349
2018-05-14 14:40:00+00:00,224.0,225.0,10.55,11.68,,47.59359,-54.27349
2018-05-14 14:50:00+00:00,223.0,223.0,11.44,13.46,,47.59359,-54.27349
2018-05-14 15:00:00+00:00,223.0,229.0,10.98,12.45,,47.59359,-54.27349
2018-05-14 15:10:00+00:00,221.0,230.0,10.21,11.46,,47.59359,-54.27349
2018-05-14 15:20:00+00:00,220.0,221.0,10.31,12.08,,47.59359,-54.27349
2018-05-14 15:30:00+00:00,220.0,221.0,11.11,12.42,,47.59359,-54.27349
2018-05-14 15:40:00+00:00,222.0,221.0,11.13,12.42,,47.59359,-54.27349
2018-05-14 15:50:00+00:00,222.0,223.0,12.69,14.6,,47.59359,-54.27349
2018-05-14 16:00:00+00:00,220.0,225.0,12.48,14.1,,47.59359,-54.27349
2018-05-14 16:10:00+00:00,220.0,227.0,12.0,13.69,,47.59359,-54.27349
2018-05-14 16:20:00+00:00,220.0,220.0,10.08,12.04,,47.59359,-54.27349
2018-05-14 16:30:00+00:00,220.0,224.0,10.06,11.52,,47.59359,-54.27349
2018-05-14 16:40:00+00:00,218.0,216.0,10.14,11.49,,47.59359,-54.27349
2018-05-14 16:50:00+00:00,219.0,223.0,10.22,11.52,,47.59359,-54.27349
2018-05-14 17:00:00+00:00,220.0,218.0,10.91,11.83,,47.59359,-54.27349
2018-05-14 17:10:00+00:00,220.0,216.0,10.02,11.13,,47.59359,-54.27349
2018-05-14 17:20:00+00:00,221.0,226.0,10.82,13.18,,47.59359,-54.27349
2018-05-14 17:30:00+00:00,223.0,218.0,11.76,13.69,,47.59359,-54.27349
2018-05-14 17:40:00+00:00,224.0,224.0,12.14,13.96,,47.59359,-54.27349
2018-05-14 17:50:00+00:00,223.0,225.0,11.86,13.79,,47.59359,-54.27349
2018-05-14 18:00:00+00:00,223.0,224.0,12.43,13.87,,47.59359,-54.27349
2018-05-14 18:10:00+00:00,225.0,225.0,11.97,13.84,,47.59359,-54.27349
2018-05-14 18:20:00+00:00,226.0,227.0,12.69,14.0,,47.59359,-54.27349
2018-05-14 18:30:00+00:00,230.0,240.0,11.48,13.33,,47.59359,-54.27349
2018-05-14 18:40:00+00:00,227.0,227.0,11.57,13.45,,47.59359,-54.27349
2018-05-14 18:50:00+00:00,228.0,229.0,10.91,12.07,,47.59359,-54.27349
2018-05-14 19:00:00+00:00,228.0,232.0,10.67,13.02,,47.59359,-54.27349
2018-05-14 19:10:00+00:00,233.0,234.0,8.15,9.63,,47.59359,-54.27349
2018-05-14 19:20:00+00:00,234.0,231.0,8.43,9.62,,47.59359,-54.27349
2018-05-14 19:30:00+00:00,236.0,237.0,8.31,9.53,,47.59359,-54.27349
2018-05-14 19:40:00+00:00,236.0,233.0,8.96,9.95,,47.59359,-54.27349
2018-05-14 19:50:00+00:00,236.0,240.0,9.36,11.36,,47.59359,-54.27349
2018-05-14 20:00:00+00:00,232.0,228.0,8.55,10.35,,47.59359,-54.27349
2018-05-14 20:10:00+00:00,234.0,236.0,8.52,9.95,,47.59359,-54.27349
2018-05-14 20:20:00+00:00,234.0,239.0,8.97,10.96,,47.59359,-54.27349
2018-05-14 20:30:00+00:00,227.0,228.0,9.49,11.35,,47.59359,-54.27349
2018-05-14 20:40:00+00:00,227.0,228.0,10.92,12.5,,47.59359,-54.27349
2018-05-14 20:50:00+00:00,228.0,226.0,10.09,11.51,,47.59359,-54.27349
2018-05-14 21:00:00+00:00,238.0,238.0,9.98,11.53,,47.59359,-54.27349
2018-05-14 21:10:00+00:00,235.0,234.0,9.33,11.63,,47.59359,-54.27349
2018-05-14 21:20:00+00:00,234.0,228.0,9.58,11.28,,47.59359,-54.27349
2018-05-14 21:30:00+00:00,244.0,240.0,8.67,9.96,,47.59359,-54.27349
2018-05-14 21:40:00+00:00,246.0,245.0,8.12,9.79,,47.59359,-54.27349
2018-05-14 21:50:00+00:00,245.0,236.0,8.95,10.11,,47.59359,-54.27349
2018-05-14 22:00:00+00:00,238.0,240.0,11.03,12.3,,47.59359,-54.27349
2018-05-14 22:10:00+00:00,229.0,229.0,9.93,11.18,,47.59359,-54.27349
2018-05-14 22:20:00+00:00,232.0,232.0,8.83,10.28,,47.59359,-54.27349
2018-05-14 22:30:00+00:00,231.0,231.0,8.8,9.71,,47.59359,-54.27349
2018-05-14 22:40:00+00:00,229.0,229.0,8.62,10.36,,47.59359,-54.27349
2018-05-14 22:50:00+00:00,230.0,231.0,7.79,8.86,,47.59359,-54.27349
2018-05-14 23:00:00+00:00,222.0,220.0,6.69,7.86,,47.59359,-54.27349
2018-05-14 23:10:00+00:00,215.0,217.0,6.41,7.13,,47.59359,-54.27349
2018-05-14 23:20:00+00:00,213.0,218.0,5.52,6.45,,47.59359,-54.27349
2018-05-14 23:30:00+00:00,225.0,226.0,5.08,5.93,,47.59359,-54.27349
2018-05-14 23:40:00+00:00,232.0,233.0,6.38,7.32,,47.59359,-54.27349
2018-05-14 23:50:00+00:00,231.0,225.0,6.37,7.6,,47.59359,-54.27349
